• In Österreich
  • Länderverzeichnis
  • Für 7 Tage
  • Wassertemperatur
  • Satellitenkarten
  • Wetterkarte
  • News
  • Widgets
  • user-avatar
    Anmelden

    Stündliche Wetter Luanda

    Heute, 20 Januar, Samstag

    Zeit Temperatur Niederschläge Wind Luftdruck Luftfeuchtigkeit
    00:00 +27°C° 0 mm 2 m/S 753 mmHg 80%
    01:00 +27°C° 0 mm 2 m/S 753 mmHg 82%
    02:00 +27°C° 0,5 mm 2 m/S 752 mmHg 85%
    03:00 +26°C° 0,5 mm 2 m/S 752 mmHg 87%
    04:00 +26°C° 0,5 mm 2 m/S 752 mmHg 90%
    05:00 +26°C° 0,2 mm 2 m/S 752 mmHg 89%
    06:00 +26°C° 0,2 mm 2 m/S 752 mmHg 89%
    07:00 +27°C° 0 mm 2 m/S 753 mmHg 87%
    08:00 +28°C° 0,1 mm 2 m/S 753 mmHg 79%
    09:00 +30°C° 0,1 mm 1 m/S 753 mmHg 71%
    10:00 +32°C° 0,1 mm 1 m/S 753 mmHg 62%
    11:00 +34°C° 0,1 mm 2 m/S 752 mmHg 59%
    12:00 +34°C° 0,1 mm 3 m/S 752 mmHg 56%
    13:00 +35°C° 0 mm 3 m/S 751 mmHg 55%
    14:00 +34°C° 0 mm 4 m/S 751 mmHg 55%
    15:00 +34°C° 0 mm 4 m/S 751 mmHg 56%
    16:00 +34°C° 0 mm 4 m/S 750 mmHg 56%
    17:00 +32°C° 0 mm 4 m/S 751 mmHg 62%
    18:00 +30°C° 0 mm 3 m/S 751 mmHg 68%
    19:00 +28°C° 0 mm 3 m/S 751 mmHg 74%
    20:00 +28°C° 0 mm 2 m/S 752 mmHg 76%
    21:00 +28°C° 0 mm 2 m/S 753 mmHg 78%
    22:00 +27°C° 0 mm 2 m/S 753 mmHg 81%
    23:00 +27°C° 0 mm 1 m/S 753 mmHg 82%

    Morgen, 21 Januar, Sonntag

    Zeit Temperatur Niederschläge Wind Luftdruck Luftfeuchtigkeit
    00:00 +27°C° 0 mm 1 m/S 753 mmHg 83%
    01:00 +27°C° 0 mm 1 m/S 753 mmHg 84%
    02:00 +26°C° 0,7 mm 1 m/S 753 mmHg 86%
    03:00 +26°C° 0,7 mm 1 m/S 753 mmHg 88%
    04:00 +26°C° 0,7 mm 1 m/S 752 mmHg 90%
    05:00 +26°C° 1,4 mm 1 m/S 753 mmHg 90%
    06:00 +26°C° 1,4 mm 2 m/S 753 mmHg 90%
    07:00 +26°C° 1,4 mm 2 m/S 753 mmHg 89%
    08:00 +27°C° 0,9 mm 2 m/S 754 mmHg 87%
    09:00 +27°C° 0,9 mm 2 m/S 754 mmHg 86%
    10:00 +28°C° 0,9 mm 2 m/S 754 mmHg 84%
    11:00 +28°C° 0,4 mm 2 m/S 754 mmHg 83%
    12:00 +28°C° 0,4 mm 2 m/S 754 mmHg 83%
    13:00 +28°C° 0,4 mm 2 m/S 753 mmHg 82%
    14:00 +28°C° 0,4 mm 2 m/S 753 mmHg 83%
    15:00 +28°C° 0,4 mm 2 m/S 752 mmHg 83%
    16:00 +28°C° 0,4 mm 2 m/S 752 mmHg 84%
    17:00 +27°C° 0,1 mm 2 m/S 752 mmHg 85%
    18:00 +27°C° 0,1 mm 2 m/S 752 mmHg 86%
    19:00 +27°C° 0,1 mm 1 m/S 752 mmHg 87%
    20:00 +26°C° 0 mm 1 m/S 753 mmHg 86%
    21:00 +26°C° 0 mm 1 m/S 753 mmHg 86%
    22:00 +24°C° 0 mm 0 m/S 754 mmHg 85%
    23:00 +24°C° 0 mm 0 m/S 753 mmHg 86%

    übermorgen, 22 Januar, Montag

    Zeit Temperatur Niederschläge Wind Luftdruck Luftfeuchtigkeit
    00:00 +26°C° 0 mm 1 m/S 753 mmHg 87%
    01:00 +25°C° 0 mm 1 m/S 753 mmHg 88%
    02:00 +25°C° 0,1 mm 1 m/S 753 mmHg 89%
    03:00 +25°C° 0,1 mm 1 m/S 753 mmHg 90%
    04:00 +23°C° 0,1 mm 0 m/S 753 mmHg 91%
    05:00 +25°C° 0,2 mm 1 m/S 753 mmHg 90%
    06:00 +25°C° 0,2 mm 1 m/S 753 mmHg 90%
    07:00 +25°C° 0,2 mm 1 m/S 754 mmHg 89%
    08:00 +27°C° 0 mm 1 m/S 754 mmHg 82%
    09:00 +29°C° 0 mm 1 m/S 754 mmHg 75%
    10:00 +30°C° 0 mm 1 m/S 754 mmHg 69%
    11:00 +31°C° 0 mm 1 m/S 754 mmHg 65%
    12:00 +32°C° 0 mm 2 m/S 753 mmHg 61%
    13:00 +32°C° 0 mm 2 m/S 752 mmHg 57%
    14:00 +34°C° 0 mm 2 m/S 752 mmHg 55%
    15:00 +34°C° 0 mm 3 m/S 751 mmHg 54%
    16:00 +34°C° 0 mm 4 m/S 751 mmHg 52%
    17:00 +33°C° 0 mm 4 m/S 751 mmHg 58%
    18:00 +30°C° 0 mm 3 m/S 752 mmHg 64%
    19:00 +29°C° 0 mm 3 m/S 752 mmHg 70%
    20:00 +28°C° 0 mm 3 m/S 753 mmHg 74%
    21:00 +28°C° 0 mm 3 m/S 753 mmHg 77%
    22:00 +27°C° 0 mm 2 m/S 754 mmHg 80%
    23:00 +27°C° 0,1 mm 2 m/S 754 mmHg 82%

    23 Januar, Dienstag

    Zeit Temperatur Niederschläge Wind Luftdruck Luftfeuchtigkeit
    00:00 +27°C° 0,1 mm 2 m/S 753 mmHg 84%
    01:00 +26°C° 0,1 mm 2 m/S 753 mmHg 86%
    02:00 +26°C° 0 mm 1 m/S 752 mmHg 87%
    03:00 +26°C° 0 mm 1 m/S 752 mmHg 89%
    04:00 +26°C° 0 mm 1 m/S 752 mmHg 90%
    05:00 +26°C° 0 mm 1 m/S 752 mmHg 89%
    06:00 +26°C° 0 mm 1 m/S 752 mmHg 88%
    07:00 +26°C° 0 mm 1 m/S 753 mmHg 88%
    08:00 +28°C° 0 mm 1 m/S 753 mmHg 78%
    09:00 +30°C° 0 mm 1 m/S 753 mmHg 68%
    10:00 +32°C° 0 mm 1 m/S 754 mmHg 58%
    11:00 +33°C° 0 mm 1 m/S 753 mmHg 54%
    12:00 +35°C° 0 mm 2 m/S 752 mmHg 50%
    13:00 +36°C° 0 mm 3 m/S 751 mmHg 45%
    14:00 +35°C° 0 mm 4 m/S 751 mmHg 48%
    15:00 +35°C° 0 mm 4 m/S 750 mmHg 51%
    16:00 +34°C° 0 mm 4 m/S 749 mmHg 54%
    17:00 +32°C° 0 mm 4 m/S 750 mmHg 61%
    18:00 +30°C° 0 mm 3 m/S 751 mmHg 67%
    19:00 +28°C° 0 mm 3 m/S 751 mmHg 73%
    20:00 +28°C° 0 mm 3 m/S 752 mmHg 76%
    21:00 +28°C° 0 mm 2 m/S 752 mmHg 78%
    22:00 +28°C° 0 mm 2 m/S 753 mmHg 81%
    23:00 +27°C° 0 mm 1 m/S 753 mmHg 82%

    24 Januar, Mittwoch

    Zeit Temperatur Niederschläge Wind Luftdruck Luftfeuchtigkeit
    00:00 +27°C° 0 mm 1 m/S 752 mmHg 83%
    01:00 +27°C° 0 mm 1 m/S 752 mmHg 84%
    02:00 +27°C° 0 mm 1 m/S 752 mmHg 86%
    03:00 +26°C° 0 mm 1 m/S 752 mmHg 87%
    04:00 +26°C° 0 mm 1 m/S 751 mmHg 88%
    05:00 +26°C° 0 mm 2 m/S 752 mmHg 87%
    06:00 +26°C° 0 mm 2 m/S 753 mmHg 86%
    07:00 +26°C° 0 mm 2 m/S 753 mmHg 85%
    08:00 +28°C° 0,1 mm 2 m/S 753 mmHg 77%
    09:00 +30°C° 0,1 mm 2 m/S 753 mmHg 69%
    10:00 +32°C° 0,1 mm 2 m/S 754 mmHg 61%
    11:00 +34°C° 0 mm 2 m/S 753 mmHg 57%
    12:00 +33°C° 0 mm 1 m/S 752 mmHg 54%
    13:00 +34°C° 0 mm 1 m/S 751 mmHg 50%
    14:00 +35°C° 0 mm 2 m/S 751 mmHg 51%
    15:00 +35°C° 0 mm 3 m/S 750 mmHg 52%
    16:00 +35°C° 0 mm 4 m/S 750 mmHg 53%
    17:00 +33°C° 0 mm 4 m/S 750 mmHg 59%
    18:00 +32°C° 0 mm 4 m/S 751 mmHg 65%
    19:00 +29°C° 0 mm 4 m/S 751 mmHg 72%
    20:00 +29°C° 0 mm 4 m/S 751 mmHg 74%
    21:00 +28°C° 0 mm 3 m/S 752 mmHg 76%
    22:00 +28°C° 0 mm 3 m/S 752 mmHg 79%
    23:00 +28°C° 0 mm 3 m/S 752 mmHg 80%

    25 Januar, Donnerstag

    Zeit Temperatur Niederschläge Wind Luftdruck Luftfeuchtigkeit
    00:00 +27°C° 0 mm 3 m/S 752 mmHg 81%
    01:00 +27°C° 0 mm 2 m/S 752 mmHg 82%
    02:00 +27°C° 0 mm 2 m/S 752 mmHg 83%
    03:00 +27°C° 0 mm 2 m/S 751 mmHg 84%
    04:00 +27°C° 0 mm 2 m/S 751 mmHg 85%
    05:00 +27°C° 0 mm 2 m/S 752 mmHg 84%
    06:00 +27°C° 0 mm 2 m/S 752 mmHg 83%
    07:00 +27°C° 0 mm 2 m/S 753 mmHg 82%
    08:00 +29°C° 0 mm 2 m/S 753 mmHg 74%
    09:00 +31°C° 0 mm 2 m/S 753 mmHg 65%
    10:00 +34°C° 0 mm 2 m/S 753 mmHg 57%
    11:00 +35°C° 0 mm 2 m/S 752 mmHg 54%
    12:00 +35°C° 0 mm 3 m/S 752 mmHg 50%
    13:00 +36°C° 0 mm 4 m/S 751 mmHg 47%
    14:00 +35°C° 0,1 mm 4 m/S 751 mmHg 51%
    15:00 +35°C° 0,1 mm 5 m/S 750 mmHg 55%
    16:00 +34°C° 0,1 mm 5 m/S 750 mmHg 59%
    17:00 +32°C° 0 mm 5 m/S 751 mmHg 64%
    18:00 +30°C° 0 mm 5 m/S 751 mmHg 70%
    19:00 +29°C° 0 mm 5 m/S 752 mmHg 76%
    20:00 +28°C° 0 mm 4 m/S 752 mmHg 78%
    21:00 +28°C° 0 mm 4 m/S 753 mmHg 79%
    22:00 +28°C° 0 mm 4 m/S 753 mmHg 81%
    23:00 +27°C° 0 mm 4 m/S 753 mmHg 82%
    Mehr zeigen